CW9861 Weather Reports


Display with metric or nautical units.
time (UTC)temp
F
wind
direction
speed
MPH
gust
MPH
rain 1hr
in
rain 24hr
in
rain mn
in
humidity
%
barometer
mb
20260906090957 57 34 0.0 0.0 0.00 0.00 0.00 90 1017.8
20260906090457 57 34 0.0 1.0 0.00 0.00 0.00 90 1017.8
20260906085958 57 34 0.0 1.0 0.00 0.00 0.00 90 1017.7
20260906085456 57 34 0.0 1.0 0.00 0.00 0.00 90 1017.7
20260906084957 57 34 0.0 0.0 0.00 0.00 0.00 90 1017.7
20260906084456 57 34 0.0 1.0 0.00 0.00 0.00 90 1017.7
20260906083957 57 34 0.0 1.0 0.00 0.00 0.00 90 1017.8
20260906083456 57 60 0.0 0.0 0.00 0.00 0.00 90 1017.6
20260906082957 57 72 0.0 0.0 0.00 0.00 0.00 90 1017.5
20260906082457 57 72 0.0 0.0 0.00 0.00 0.00 90 1017.4
20260906081956 57 72 0.0 0.0 0.00 0.00 0.00 90 1017.4
20260906081458 58 72 0.0 0.0 0.00 0.00 0.00 90 1017.4
20260906080956 58 72 0.0 0.0 0.00 0.00 0.00 90 1017.4
20260906080458 58 72 0.0 0.0 0.00 0.00 0.00 90 1017.4
20260906075959 58 68 0.0 0.0 0.00 0.00 0.00 90 1017.4
20260906075457 58 84 0.0 2.0 0.00 0.00 0.00 90 1017.5
20260906074957 58 84 0.0 2.0 0.00 0.00 0.00 90 1017.6
20260906074457 58 34 0.0 1.0 0.00 0.00 0.00 90 1017.6
20260906073957 58 75 0.0 1.0 0.00 0.00 0.00 90 1017.4
20260906073457 57 75 0.0 0.0 0.00 0.00 0.00 89 1017.4
20260906072957 57 75 0.0 1.0 0.00 0.00 0.00 89 1017.4
20260906072457 57 75 0.0 1.0 0.00 0.00 0.00 89 1017.3
20260906071957 57 75 0.0 0.0 0.00 0.00 0.00 88 1017.4
20260906071457 57 75 0.0 0.0 0.00 0.00 0.00 88 1017.4
20260906070956 57 75 0.0 0.0 0.00 0.00 0.00 88 1017.5
20260906070457 58 75 0.0 0.0 0.00 0.00 0.00 88 1017.6
20260906065959 58 75 0.0 0.0 0.00 0.00 0.00 88 1017.6
20260906065456 58 75 0.0 0.0 0.00 0.00 0.00 88 1017.6
20260906064956 58 75 0.0 0.0 0.00 0.00 0.00 88 1017.7
20260906064456 58 75 0.0 0.0 0.00 0.00 0.00 88 1017.7
20260906063958 58 75 0.0 0.0 0.00 0.00 0.00 87 1017.7
20260906063456 58 75 0.0 0.0 0.00 0.00 0.00 87 1017.6
20260906062957 59 75 0.0 0.0 0.00 0.00 0.00 87 1017.6
20260906062456 59 75 0.0 0.0 0.00 0.00 0.00 87 1017.5
20260906061957 59 75 0.0 0.0 0.00 0.00 0.00 87 1017.4
20260906054456 60 75 0.0 0.0 0.00 0.00 0.00 87 1017.5
20260906053956 60 75 0.0 0.0 0.00 0.00 0.00 88 1017.4
20260906053456 60 75 0.0 0.0 0.00 0.00 0.00 87 1017.4
20260906052957 61 75 0.0 1.0 0.00 0.00 0.00 87 1017.3
20260906052456 61 75 0.0 1.0 0.00 0.00 0.00 87 1017.1
20260906051955 61 75 0.0 0.0 0.00 0.00 0.00 87 1017.2
20260906051456 61 75 0.0 0.0 0.00 0.00 0.00 87 1017.3
20260906050956 61 75 0.0 0.0 0.00 0.00 0.00 87 1017.3
20260906050456 61 75 0.0 0.0 0.00 0.00 0.00 87 1017.2
20260906045957 62 75 0.0 0.0 0.00 0.00 0.00 87 1017.1
20260906045458 62 75 0.0 0.0 0.00 0.00 0.00 87 1017.0
20260906044957 62 75 0.0 1.0 0.00 0.00 0.00 87 1016.9
20260906044457 62 53 0.0 0.0 0.00 0.00 0.00 87 1016.9
20260906040958 63 276 0.0 1.0 0.00 0.00 0.00 86 1016.6
20260906040457 63 70 0.0 2.0 0.00 0.00 0.00 86 1016.7
20260906040002 63 70 0.0 2.0 0.00 0.00 0.00 86 1016.7
20260906035457 63 78 0.0 1.0 0.00 0.00 0.00 85 1016.7
20260906034958 63 78 0.0 0.0 0.00 0.00 0.00 85 1016.7
20260906034459 63 78 0.0 0.0 0.00 0.00 0.00 85 1016.7
20260906033958 64 78 0.0 0.0 0.00 0.00 0.00 85 1016.5
20260906033457 64 78 0.0 1.0 0.00 0.00 0.00 85 1016.4
20260906032957 64 78 0.0 1.0 0.00 0.00 0.00 85 1016.4
20260906032501 64 78 0.0 1.0 0.00 0.00 0.00 85 1016.6
20260906031958 64 78 0.0 1.0 0.00 0.00 0.00 85 1016.4
20260906031458 64 78 0.0 1.0 0.00 0.00 0.00 84 1016.4
20260906030957 64 78 0.0 1.0 0.00 0.00 0.00 84 1016.4
20260906030458 64 77 0.0 0.0 0.00 0.00 0.00 84 1016.2
20260906025957 65 91 0.0 1.0 0.00 0.00 0.00 84 1016.2
20260906025457 65 105 0.0 1.0 0.00 0.00 0.00 84 1016.2
20260906024958 65 105 0.0 1.0 0.00 0.00 0.00 84 1016.1
20260906024457 65 105 0.0 1.0 0.00 0.00 0.00 84 1016.3
20260906023957 65 50 0.0 1.0 0.00 0.00 0.00 84 1016.1
20260906023457 65 50 0.0 1.0 0.00 0.00 0.00 84 1016.2
20260906022958 65 307 0.0 1.0 0.00 0.00 0.00 84 1016.2
20260906015458 66 83 0.0 0.0 0.00 0.00 0.00 83 1015.9
20260906014957 66 83 0.0 0.0 0.00 0.00 0.00 83 1015.7
20260906014457 67 83 0.0 0.0 0.00 0.00 0.00 83 1015.7
20260906013958 67 83 0.0 0.0 0.00 0.00 0.00 82 1015.7
20260906013457 67 83 0.0 0.0 0.00 0.00 0.00 82 1015.7
20260906012957 67 83 0.0 0.0 0.00 0.00 0.00 82 1015.7
20260906012458 68 83 0.0 0.0 0.00 0.00 0.00 82 1015.6
20260906011957 68 83 0.0 0.0 0.00 0.00 0.00 82 1015.5
20260906011458 69 83 0.0 0.0 0.00 0.00 0.00 82 1015.3
20260906010957 69 83 0.0 0.0 0.00 0.00 0.00 80 1015.3
20260906010457 69 83 0.0 0.0 0.00 0.00 0.00 80 1015.3
20260906005957 69 83 0.0 0.0 0.00 0.00 0.00 80 1015.2
20260906005457 70 83 0.0 0.0 0.00 0.00 0.00 81 1015.1
20260906004957 70 83 0.0 0.0 0.00 0.00 0.00 80 1015.0
20260906004456 71 83 0.0 0.0 0.00 0.00 0.00 79 1014.9
20260906003956 71 83 0.0 0.0 0.00 0.00 0.00 79 1014.9
20260906003456 71 83 0.0 0.0 0.00 0.00 0.00 79 1015.0
20260906002956 72 83 0.0 0.0 0.00 0.00 0.00 79 1015.0
20260906002457 72 83 0.0 0.0 0.00 0.00 0.00 79 1015.0
20260906001956 72 83 0.0 0.0 0.00 0.00 0.00 79 1015.0
20260906001457 72 83 0.0 0.0 0.00 0.00 0.00 79 1015.0
20260906000956 73 83 0.0 0.0 0.00 0.00 0.00 78 1015.0
20260906000456 73 83 0.0 0.0 0.00 0.00 0.00 78 1015.2
20260905235957 73 83 0.0 1.0 0.00 0.00 0.00 78 1015.1
20260905235457 73 83 0.0 1.0 0.00 0.00 0.00 77 1015.0
20260905234957 74 83 0.0 2.0 0.00 0.00 0.00 77 1014.9
20260905234457 74 86 1.0 2.0 0.00 0.00 0.00 76 1014.9
20260905233957 74 91 0.0 1.0 0.00 0.00 0.00 77 1015.0
20260905233457 74 68 0.0 1.0 0.00 0.00 0.00 77 1015.0
20260905232957 74 68 0.0 1.0 0.00 0.00 0.00 77 1015.0
20260905232457 74 77 0.0 1.0 0.00 0.00 0.00 78 1015.0
20260905231957 74 77 0.0 1.0 0.00 0.00 0.00 77 1015.1
20260905231457 74 93 0.0 2.0 0.00 0.00 0.00 77 1015.0
20260905230958 74 86 0.0 1.0 0.00 0.00 0.00 77 1015.0
20260905230457 75 86 0.0 3.0 0.00 0.00 0.00 77 1014.9
20260905225957 75 54 0.0 2.0 0.00 0.00 0.00 76 1014.8
20260905225456 75 78 1.0 2.0 0.00 0.00 0.00 75 1014.7
20260905224957 76 70 0.0 2.0 0.00 0.00 0.00 75 1014.7
20260905224456 76 74 0.0 3.0 0.00 0.00 0.00 74 1014.7
20260905223956 76 48 0.0 4.0 0.00 0.00 0.00 73 1014.6
20260905223456 76 23 2.0 4.0 0.00 0.00 0.00 72 1014.6
20260905222956 77 78 0.0 2.0 0.00 0.00 0.00 74 1014.5
20260905222456 77 66 1.0 4.0 0.00 0.00 0.00 73 1014.5
20260905221956 78 59 0.0 4.0 0.00 0.00 0.00 73 1014.6
20260905221457 78 357 1.0 4.0 0.00 0.00 0.00 72 1014.5
20260905220956 78 89 1.0 4.0 0.00 0.00 0.00 73 1014.4
20260905220456 78 120 1.0 4.0 0.00 0.00 0.00 72 1014.3
20260905215957 78 40 1.0 3.0 0.00 0.00 0.00 75 1014.4
20260905215456 77 72 1.0 2.0 0.00 0.00 0.00 77 1014.3
20260905214956 77 79 0.0 3.0 0.00 0.00 0.00 76 1014.2
20260905214457 76 89 1.0 5.0 0.00 0.00 0.00 77 1014.2
20260905213956 76 66 1.0 5.0 0.00 0.00 0.00 75 1014.1
20260905213456 77 86 1.0 3.0 0.00 0.00 0.00 76 1014.2
20260905212956 77 78 1.0 3.0 0.00 0.00 0.00 75 1014.2
20260905212456 79 59 1.0 3.0 0.00 0.00 0.00 71 1014.2
20260905211955 80 53 1.0 3.0 0.00 0.00 0.00 72 1014.2
20260905211456 80 64 1.0 6.0 0.00 0.00 0.00 69 1014.1
20260905210956 80 58 2.0 6.0 0.00 0.00 0.00 68 1014.1
20260905210456 80 49 1.0 4.0 0.00 0.00 0.00 70 1014.1
20260905205959 80 137 0.0 2.0 0.00 0.00 0.00 74 1014.1
20260905205457 79 70 1.0 3.0 0.00 0.00 0.00 72 1014.1
20260905204958 80 100 1.0 3.0 0.00 0.00 0.00 75 1014.0
20260905204457 79 96 1.0 7.0 0.00 0.00 0.00 74 1014.1
20260905200957 78 58 1.0 3.0 0.00 0.00 0.00 77 1014.5
20260905200457 79 84 1.0 3.0 0.00 0.00 0.00 73 1014.4
20260905195958 79 63 1.0 3.0 0.00 0.00 0.00 75 1014.4
20260905195458 78 70 2.0 5.0 0.00 0.00 0.00 77 1014.4
20260905194957 77 107 2.0 5.0 0.00 0.00 0.00 77 1014.4
20260905194457 76 58 0.0 3.0 0.00 0.00 0.00 78 1014.4
20260905193957 76 102 1.0 3.0 0.00 0.00 0.00 80 1014.5
20260905193457 76 110 0.0 2.0 0.00 0.00 0.00 80 1014.5
20260905192957 76 66 0.0 3.0 0.00 0.00 0.00 81 1014.6
20260905192456 76 84 1.0 3.0 0.00 0.00 0.00 80 1014.5
20260905191957 76 80 1.0 4.0 0.00 0.00 0.00 82 1014.6
20260905191458 76 82 2.0 4.0 0.00 0.00 0.00 79 1014.7
20260905183458 74 23 0.0 1.0 0.00 0.00 0.00 84 1015.1
20260905182957 74 23 0.0 1.0 0.00 0.00 0.00 84 1015.1
20260905182457 73 68 0.0 0.0 0.00 0.00 0.00 84 1014.9
20260905181957 73 68 0.0 0.0 0.00 0.00 0.00 85 1015.0
20260905181457 73 68 0.0 0.0 0.00 0.00 0.00 85 1015.0
20260905180957 73 68 0.0 0.0 0.00 0.00 0.00 86 1015.0
20260905180458 73 68 0.0 0.0 0.00 0.00 0.00 84 1014.9
20260905175956 73 68 0.0 0.0 0.00 0.00 0.00 85 1015.0
20260905175457 73 68 0.0 1.0 0.00 0.00 0.00 86 1015.0
20260905174956 72 68 0.0 1.0 0.00 0.00 0.00 85 1015.0
20260905174456 72 78 0.0 1.0 0.00 0.00 0.00 85 1015.0
20260905173956 72 59 0.0 1.0 0.00 0.00 0.00 85 1014.9
20260905165958 71 40 0.0 3.0 0.00 0.00 0.00 86 1014.8
20260905165457 71 65 1.0 3.0 0.00 0.01 0.00 85 1014.9
20260905164957 71 69 0.0 2.0 0.00 0.01 0.00 86 1014.9
20260905164458 72 78 0.0 3.0 0.00 0.01 0.00 86 1014.9
20260905163957 72 59 1.0 3.0 0.00 0.01 0.00 85 1015.0
20260905163457 72 85 1.0 3.0 0.00 0.01 0.00 86 1015.0
20260905162957 72 22 0.0 2.0 0.00 0.01 0.00 85 1014.9
20260905162457 72 59 0.0 3.0 0.00 0.01 0.00 86 1014.8
20260905161957 72 57 0.0 3.0 0.00 0.01 0.00 85 1014.8
20260905161457 72 57 1.0 3.0 0.00 0.01 0.00 85 1014.8
20260905160956 72 26 1.0 3.0 0.00 0.01 0.00 85 1014.8
20260905160456 72 142 1.0 3.0 0.00 0.01 0.00 85 1014.7
20260905155957 73 32 1.0 2.0 0.00 0.03 0.00 85 1014.6
20260905155457 73 65 0.0 2.0 0.00 0.03 0.00 85 1014.7
20260905154957 72 97 1.0 2.0 0.00 0.03 0.00 86 1014.7
20260905154458 72 39 1.0 3.0 0.00 0.03 0.00 85 1014.7
20260905153957 71 58 0.0 3.0 0.00 0.03 0.00 87 1014.8
20260905153457 71 77 0.0 5.0 0.00 0.03 0.00 87 1014.8
20260905152956 71 3 1.0 6.0 0.00 0.03 0.00 87 1014.8
20260905152457 71 118 1.0 6.0 0.00 0.03 0.00 86 1014.8
20260905151957 71 95 1.0 5.0 0.00 0.03 0.00 86 1014.7
20260905151457 71 31 1.0 5.0 0.00 0.03 0.00 86 1014.7
20260905150958 71 78 0.0 4.0 0.00 0.03 0.00 87 1014.7
20260905150457 70 31 1.0 4.0 0.00 0.03 0.00 87 1014.6
20260905145959 70 1 1.0 4.0 0.00 0.03 0.00 87 1014.5
20260905145457 70 21 1.0 3.0 0.00 0.16 0.00 88 1014.4
20260905144957 70 88 1.0 3.0 0.00 0.16 0.00 88 1014.3
20260905144457 70 68 1.0 4.0 0.00 0.16 0.00 88 1014.3
20260905143956 70 82 1.0 3.0 0.00 0.16 0.00 88 1014.4
20260905143456 70 95 1.0 3.0 0.00 0.16 0.00 88 1014.4
20260905142957 69 80 1.0 5.0 0.00 0.16 0.00 88 1014.3
20260905142457 69 12 1.0 5.0 0.00 0.16 0.00 88 1014.4
20260905134956 67 61 1.0 3.0 0.00 0.36 0.00 89 1014.3
20260905134459 67 66 1.0 3.0 0.00 0.36 0.00 89 1014.3
20260905133957 67 68 1.0 3.0 0.00 0.36 0.00 89 1014.3
20260905133457 67 72 1.0 6.0 0.00 0.36 0.00 89 1014.3
20260905132957 67 66 1.0 6.0 0.00 0.36 0.00 89 1014.2
20260905132456 67 69 1.0 3.0 0.00 0.36 0.00 89 1014.3
20260905131957 67 50 1.0 3.0 0.00 0.36 0.00 89 1014.3
20260905131457 67 71 1.0 3.0 0.00 0.36 0.00 89 1014.2
20260905130957 66 64 2.0 4.0 0.00 0.36 0.00 89 1014.2
20260905130457 66 90 1.0 5.0 0.00 0.36 0.00 89 1014.2
20260905125957 66 70 1.0 5.0 0.00 0.52 0.00 89 1014.2
20260905125456 66 60 1.0 3.0 0.00 0.52 0.00 89 1014.2
20260905124957 66 74 2.0 3.0 0.00 0.52 0.00 89 1014.1
20260905124457 66 74 1.0 3.0 0.00 0.52 0.00 90 1014.0
20260905123956 66 64 1.0 3.0 0.00 0.52 0.00 90 1014.0
20260905123458 66 63 1.0 3.0 0.00 0.52 0.00 90 1014.0
20260905122957 66 74 2.0 6.0 0.00 0.52 0.00 90 1013.9
20260905122457 66 94 3.0 6.0 0.00 0.52 0.00 90 1013.9
20260905122000 66 72 1.0 3.0 0.00 0.52 0.00 90 1013.8
20260905121457 66 53 0.0 4.0 0.00 0.52 0.00 90 1013.8
20260905120957 66 47 1.0 4.0 0.00 0.52 0.00 90 1013.7
20260905120457 66 61 1.0 2.0 0.00 0.52 0.00 90 1013.6
20260905115957 66 75 1.0 3.0 0.00 1.13 0.00 90 1013.6
20260905115457 66 86 1.0 4.0 0.00 1.13 0.00 90 1013.6
20260905114957 66 53 1.0 4.0 0.00 1.13 0.00 90 1013.5
20260905114457 66 81 1.0 4.0 0.00 1.13 0.00 90 1013.3
20260905113957 66 6 1.0 4.0 0.00 1.13 0.00 90 1013.3
20260905113458 66 107 1.0 4.0 0.00 1.13 0.00 91 1013.4
20260905112958 67 91 2.0 5.0 0.00 1.13 0.00 91 1013.4
20260905112457 67 77 2.0 4.0 0.00 1.13 0.00 91 1013.3
20260905111958 67 70 1.0 3.0 0.00 1.13 0.00 91 1013.4
20260905111457 67 60 1.0 2.0 0.00 1.13 0.00 91 1013.5
20260905110957 67 84 0.0 2.0 0.00 1.13 0.00 91 1013.4
20260905110457 67 54 1.0 3.0 0.00 1.13 0.00 91 1013.2
20260905105957 67 94 1.0 6.0 0.00 1.15 0.00 91 1013.0
20260905105456 67 47 1.0 6.0 0.00 1.15 0.00 91 1012.9
20260905104956 67 76 1.0 3.0 0.00 1.15 0.00 91 1013.0
20260905104457 67 64 1.0 2.0 0.00 1.15 0.00 91 1013.1
20260905103956 67 80 1.0 3.0 0.00 1.15 0.00 91 1013.0
20260905103458 67 55 1.0 4.0 0.00 1.15 0.00 91 1013.1
20260905102957 68 70 2.0 5.0 0.00 1.15 0.00 91 1013.0
20260905102457 68 78 1.0 5.0 0.00 1.15 0.00 91 1012.8
20260905101956 68 101 1.0 3.0 0.00 1.15 0.00 91 1012.9
20260905101457 68 59 2.0 3.0 0.00 1.15 0.00 91 1012.9
20260905100957 68 98 2.0 4.0 0.00 1.15 0.00 91 1013.0
20260905100456 68 61 2.0 4.0 0.00 1.15 0.00 91 1013.1
20260905095959 68 72 1.0 2.0 0.00 1.15 0.00 91 1013.0
20260905095459 68 72 1.0 3.0 0.00 1.15 0.00 91 1012.9
20260905094959 69 107 1.0 3.0 0.00 1.15 0.00 91 1012.8
20260905094457 69 83 1.0 4.0 0.00 1.15 0.00 91 1012.9
20260905093957 69 101 2.0 5.0 0.00 1.15 0.00 91 1012.7
20260905093457 69 70 1.0 5.0 0.00 1.15 0.00 91 1012.9
20260905092957 69 73 1.0 5.0 0.00 1.15 0.00 91 1012.9
20260905092456 69 63 1.0 3.0 0.00 1.15 0.00 91 1012.8
20260905091957 69 59 1.0 4.0 0.00 1.15 0.00 91 1012.7
20260905091457 69 78 2.0 3.0 0.00 1.15 0.00 91 1012.6